Location: Recife
(8.0585°S, 34.8848°W)
Time: 10:15:25
(UTC-03:00)

Explorer 11/Cluster Stage 4 - Pass Details

Date: 18 April 2026
Orbit: 463 x 1174 km, 28.8° (Epoch: 20 May)

Event Time Altitude Azimuth Distance (km) Brightness Sun altitude
Rises 20:14:36 0° 268° (W) 3,411 10.6 -44.5°
Enters shadow 20:17:42 - 254° (WSW) 2,418 9.6 -45.3°
Reaches altitude 10° 20:18:03 10° 252° (WSW) 2,322 - -45.4°
Maximum altitude 20:21:52 19° 207° (SSW) 1,615 - -46.3°
Drops below altitude 10° 20:25:14 10° 160° (SSE) 1,999 - -47.1°
Sets 20:27:57 0° 141° (SE) 2,787 - -47.8°
